Weather in Yanychi

Russia / Perm Krai     57°41′10″N   56°25′55″E
temp.,
°C
wind,
m/s
gust,
m/s
humid.,
%
clouds,
%
prec.,
mm/h
press.,
hPa
HPBL,
m
25 february, thu
thu2523:00−26nw249943 0.0 103157
02:00−27nw229957 0.0 103125
05:00−28nw229933 0.0 103119
08:00−29wnw129927 0.0 103119
11:00−23w129114 0.0 1030216
14:00−17s128058 0.0 1029447
17:00−16s238573 0.0 1028528
20:00−22ssw129781 0.0 102820
26 february, fri
fri2623:00−25sse229546 0.0 102823
02:00−27sse23960 0.0 102760
05:00−28se259710 0.0 1027107
08:00−28sse369579 0.0 1026147
11:00−23sse379059 0.0 1026266
14:00−18sse468919 0.0 1024400
17:00−16se479055 0.0 1023511
20:00−19se379592 0.0 1020136
27 february, sat
sat2723:00−21se369456 0.0 1019115
02:00−21se38931 0.0 1017162
05:00−21ese38959 0.0 1015202
08:00−22ese4119286 0.0 1012271
11:00−19ese4109093 0.0 1010354
14:00−15ese51187100 0.0 1008527
17:00−13e61092100 0.4 1008711
20:00−16e51294100 0.7 1003517
28 february, sun
sun2823:00−16e51194100 1.1 1004492
02:00−16e51193100 0.3 1003476
05:00−16e51194100 0.5 1004463
08:00−17ene51194100 0.3 1004442
11:00−16ene4993100 0.5 1005464
14:00−13ene4890100 0.2 1007513
17:00−14ene4791100 0.4 1008506
20:00−16ene4895100 0.3 1010423
1 march, mon
mon123:00−18ene3895100 0.4 1013393
02:00−19ene3796100 0.1 1014376
05:00−20ne369797 0.3 1016301
08:00−23ne259780 0.0 1018111
11:00−19ne249250 0.0 1019256
14:00−14nne238338 0.0 1019448
17:00−13nnw238665 0.0 1018468
20:00−19wnw119963 0.0 101920